Back to catalog

ONEWEB-0510

AliveCommunicationsPO
NORAD 54128·PAYLOAD·🇬🇧 United Kingdom

Launched Oct 22, 2022 from Satish Dhawan Space Centre

Loading…

Next Passes (next 24 hours)

TLE

FreshSource: CelesTrak SupGP

Epoch: Sep 14, 2026, 14:59 UTC

1 54128C 22138R   26257.62449491 -.00001640  00000+0 -40388-2 0  2571
2 54128  87.9144 256.5945 0001986 101.8010  11.0663 13.20773331    14

Track ONEWEB-0510 in real time with AllMySat

Download on the App Store